| time (UTC) | temp C | wind direction | speed KPH | gust KPH | rain 1hr cm | rain 24hr cm | rain mn cm | humidity % | barometer mb |
| 20260505052004 | 12 | 252 | 0.0 | 3.2 | 0.00 | 0.00 | 0.00 | 84 | 1011.5 |
| 20260505051004 | 12 | 196 | 3.2 | 6.4 | 0.00 | 0.00 | 0.00 | 84 | 1011.5 |
| 20260505041004 | 12 | 210 | 0.0 | 4.8 | 0.00 | 0.00 | 0.00 | 82 | 1010.8 |
| 20260505040005 | 13 | 219 | 1.6 | 6.4 | 0.00 | 0.00 | 0.00 | 82 | 1010.8 |
| 20260505035003 | 13 | 219 | 1.6 | 6.4 | 0.00 | 0.00 | 0.00 | 82 | 1010.8 |
| 20260505034003 | 13 | 224 | 0.0 | 14.5 | 0.00 | 0.00 | 0.00 | 81 | 1010.5 |
| 20260505033004 | 13 | 5 | 1.6 | 6.4 | 0.00 | 0.00 | 0.00 | 80 | 1010.5 |
| 20260505032004 | 13 | 5 | 1.6 | 6.4 | 0.00 | 0.00 | 0.00 | 80 | 1010.5 |
| 20260505031004 | 14 | 216 | 1.6 | 11.3 | 0.00 | 0.00 | 0.00 | 78 | 1010.2 |
| 20260505030004 | 15 | 229 | 4.8 | 19.3 | 0.00 | 0.00 | 0.00 | 77 | 1010.2 |
| 20260505025004 | 15 | 229 | 4.8 | 19.3 | 0.00 | 0.00 | 0.00 | 77 | 1010.2 |
| 20260505024003 | 15 | 59 | 1.6 | 12.9 | 0.00 | 0.00 | 0.00 | 76 | 1009.8 |
| 20260505023004 | 16 | 215 | 6.4 | 17.7 | 0.00 | 0.00 | 0.00 | 74 | 1009.8 |
| 20260505022003 | 16 | 215 | 6.4 | 17.7 | 0.00 | 0.00 | 0.00 | 74 | 1009.8 |
| 20260505021004 | 17 | 232 | 4.8 | 16.1 | 0.00 | 0.00 | 0.00 | 72 | 1009.8 |
| 20260505020003 | 17 | 196 | 3.2 | 14.5 | 0.00 | 0.00 | 0.00 | 71 | 1009.5 |
| 20260505015004 | 17 | 196 | 3.2 | 14.5 | 0.00 | 0.00 | 0.00 | 71 | 1009.5 |
| 20260505014003 | 18 | 217 | 4.8 | 14.5 | 0.00 | 0.00 | 0.00 | 70 | 1009.5 |
| 20260505013004 | 18 | 219 | 8.0 | 11.3 | 0.00 | 0.00 | 0.00 | 69 | 1009.5 |
| 20260505012004 | 18 | 219 | 8.0 | 11.3 | 0.00 | 0.00 | 0.00 | 69 | 1009.5 |
| 20260505011004 | 20 | 233 | 8.0 | 16.1 | 0.00 | 0.00 | 0.00 | 66 | 1009.5 |
| 20260505010004 | 20 | 232 | 8.0 | 16.1 | 0.00 | 0.00 | 0.00 | 65 | 1009.5 |
| 20260505005004 | 20 | 232 | 8.0 | 16.1 | 0.00 | 0.00 | 0.00 | 65 | 1009.5 |
| 20260505004003 | 21 | 213 | 6.4 | 12.9 | 0.00 | 0.00 | 0.00 | 63 | 1009.5 |
| 20260505003004 | 21 | 234 | 8.0 | 16.1 | 0.00 | 0.00 | 0.00 | 64 | 1009.5 |
| 20260505002004 | 21 | 234 | 8.0 | 16.1 | 0.00 | 0.00 | 0.00 | 64 | 1009.5 |
| 20260505001004 | 22 | 194 | 1.6 | 22.5 | 0.00 | 0.00 | 0.00 | 61 | 1009.1 |
| 20260505000005 | 23 | 190 | 3.2 | 16.1 | 0.00 | 0.00 | 0.00 | 58 | 1009.5 |
| 20260504235003 | 23 | 190 | 3.2 | 16.1 | 0.00 | 0.00 | 0.00 | 58 | 1009.5 |
| 20260504234003 | 23 | 200 | 4.8 | 16.1 | 0.00 | 0.00 | 0.00 | 57 | 1009.1 |
| 20260504233004 | 24 | 226 | 4.8 | 16.1 | 0.00 | 0.00 | 0.00 | 58 | 1009.1 |
| 20260504232003 | 24 | 226 | 4.8 | 16.1 | 0.00 | 0.00 | 0.00 | 58 | 1009.1 |
| 20260504231004 | 23 | 252 | 4.8 | 22.5 | 0.00 | 0.00 | 0.00 | 58 | 1009.1 |
| 20260504230005 | 23 | 216 | 8.0 | 22.5 | 0.00 | 0.00 | 0.00 | 58 | 1009.5 |
| 20260504225004 | 23 | 216 | 8.0 | 22.5 | 0.00 | 0.00 | 0.00 | 58 | 1009.5 |
| 20260504224003 | 23 | 202 | 1.6 | 22.5 | 0.00 | 0.00 | 0.00 | 59 | 1009.5 |
| 20260504223004 | 23 | 182 | 6.4 | 19.3 | 0.00 | 0.00 | 0.00 | 60 | 1009.5 |
| 20260504222003 | 23 | 182 | 6.4 | 19.3 | 0.00 | 0.00 | 0.00 | 60 | 1009.5 |
| 20260504221003 | 23 | 237 | 9.7 | 17.7 | 0.00 | 0.00 | 0.00 | 58 | 1009.8 |
| 20260504220004 | 23 | 242 | 4.8 | 12.9 | 0.00 | 0.00 | 0.00 | 58 | 1009.8 |
| 20260504215003 | 23 | 242 | 4.8 | 12.9 | 0.00 | 0.00 | 0.00 | 58 | 1009.8 |
| 20260504214004 | 23 | 221 | 4.8 | 22.5 | 0.00 | 0.00 | 0.00 | 60 | 1010.2 |
| 20260504213004 | 22 | 213 | 11.3 | 17.7 | 0.00 | 0.00 | 0.00 | 61 | 1010.2 |
| 20260504212004 | 22 | 213 | 11.3 | 17.7 | 0.00 | 0.00 | 0.00 | 61 | 1010.2 |
| 20260504211003 | 22 | 211 | 11.3 | 16.1 | 0.00 | 0.00 | 0.00 | 61 | 1010.2 |
| 20260504210004 | 22 | 215 | 3.2 | 14.5 | 0.00 | 0.00 | 0.00 | 65 | 1010.5 |
| 20260504205004 | 22 | 215 | 3.2 | 14.5 | 0.00 | 0.00 | 0.00 | 65 | 1010.5 |
| 20260504204003 | 21 | 233 | 9.7 | 11.3 | 0.00 | 0.00 | 0.00 | 64 | 1010.5 |
| 20260504203004 | 21 | 224 | 11.3 | 14.5 | 0.00 | 0.00 | 0.00 | 64 | 1010.8 |
| 20260504202003 | 21 | 224 | 11.3 | 14.5 | 0.00 | 0.00 | 0.00 | 64 | 1010.8 |
| 20260504201003 | 21 | 220 | 4.8 | 11.3 | 0.00 | 0.00 | 0.00 | 64 | 1010.8 |
| 20260504200003 | 20 | 21 | 3.2 | 14.5 | 0.00 | 0.00 | 0.00 | 71 | 1010.8 |
| 20260504195003 | 20 | 21 | 3.2 | 14.5 | 0.00 | 0.00 | 0.00 | 71 | 1010.8 |
| 20260504175003 | 17 | 223 | 1.6 | 12.9 | 0.00 | 0.00 | 0.00 | 73 | 1011.5 |
| 20260504174003 | 17 | 186 | 4.8 | 9.7 | 0.00 | 0.00 | 0.00 | 75 | 1011.5 |
| 20260504173004 | 16 | 217 | 11.3 | 16.1 | 0.00 | 0.00 | 0.00 | 77 | 1011.9 |
| 20260504172003 | 16 | 217 | 11.3 | 16.1 | 0.00 | 0.00 | 0.00 | 77 | 1011.9 |
| 20260504171004 | 15 | 194 | 6.4 | 17.7 | 0.00 | 0.00 | 0.00 | 79 | 1011.9 |
| 20260504151004 | 13 | 236 | 4.8 | 6.4 | 0.00 | 0.00 | 0.00 | 85 | 1011.2 |
| 20260504141003 | 11 | 53 | 1.6 | 3.2 | 0.00 | 0.00 | 0.00 | 89 | 1010.5 |
| 20260504082004 | 16 | 44 | 0.0 | 0.0 | 0.00 | 0.00 | 0.00 | 73 | 1007.5 |
| 20260504081003 | 16 | 44 | 0.0 | 0.0 | 0.00 | 0.00 | 0.00 | 71 | 1007.5 |